Regional Weather Roundup
Issued by NWS

Home | Current Version | Previous Version | Text Only | Print | Product List | Glossary On
Versions: 1 2 3 4 5 6 7 8 9 10 11 12 13 14 15 16 17 18 19 20 21 22 23 24 25 26 27 28 29 30 31 32 33 34 35 36 37 38 39 40 41 42 43 44 45 46 47 48 49 50
000
ASUS46 KSEW 300810
RWRWA

WASHINGTON REGIONAL WEATHER ROUNDUP
NATIONAL WEATHER SERVICE SEATTLE WA
100 AM PDT WED JUL 30 2014

NOTE:"FAIR" INDICATES FEW OR NO CLOUDS BELOW 12,000 FEET WITH NO
SIGNIFICANT WEATHER AND/OR OBSTRUCTIONS TO VISIBILITY.

WAZ505-507>509-300900-
SEATTLE, TACOMA, EVERETT, AND VICINITY

CITY           SKY/WX    TMP DP  RH WIND       PRES   REMARKS
EVERETT        CLEAR     61  55  81 VRB5      30.12S
BOEING FIELD   CLEAR     70  55  59 CALM      30.10R
RENTON         CLEAR     68  57  68 NW6       30.09R
SEATAC AIRPORT CLEAR     64  54  69 W3        30.11R
JBLM-MCCHORD   CLEAR     66  58  77 VRB2      30.11R
PUYALLUP       FAIR      57  57 100 CALM      30.12R
JBLM-FT LEWIS  CLEAR     64  57  80 W7        30.11R
TACOMA NARROWS CLEAR     65  57  75 W6        30.11R
$$

WAZ001-503-506-510-514-515-300900-
NORTH INTERIOR

CITY           SKY/WX    TMP DP  RH WIND       PRES   REMARKS
BELLINGHAM     CLEAR     63  55  75 S8        30.07R
FRIDAY HARBOR  CLEAR     52  50  93 CALM      30.09R
EASTSOUND      CLEAR     59  54  82 S6        30.05S
PORT ANGELES   CLEAR     59  55  87 NW6       30.10S
NAS WHIDBEY    CLEAR     58  53  84 S5        30.11R
BURLINGTON     CLEAR     59  55  88 S7        30.11S
$$

WAZ020-022-039-040-504-511-512-300900-
SOUTHWEST INTERIOR

CITY           SKY/WX    TMP DP  RH WIND       PRES   REMARKS
SHELTON        CLOUDY    59  56  89 W6        30.10S
OLYMPIA        CLEAR     59  55  87 SE5       30.12R
CHEHALIS       FAIR      59  57  94 SW6       30.12S
KELSO          MOCLDY    63  55  77 CALM      30.16R
VANCOUVER      CLEAR     67  54  63 NW5       30.08R
SCAPPOOSE, OR  CLEAR     65  54  67 N8        30.08R
PORTLAND, OR   CLEAR     67  56  67 NW7       30.09R
$$

WAZ021-516-517-300900-
WASHINGTON COAST

CITY           SKY/WX    TMP DP  RH WIND       PRES   REMARKS
FORKS          CLEAR     53  51  93 CALM      30.16R
HOQUIAM        CLOUDY    59  58  96 CALM      30.14S
ASTORIA, OR    MOCLDY    59  57  93 NW9       30.15S
$$

WAZ019-023-024-040-518-519-300900-
CASCADE MOUNTAINS AND COLUMBIA GORGE

CITY           SKY/WX    TMP DP  RH WIND       PRES   REMARKS
STAMPEDE PASS  NOT AVBL
TROUTDALE, OR  CLEAR     67  56  67 CALM      30.08R
THE DALLES, OR MOCLDY    78  59  51 NW12G23   29.97R
$$

WAZ026-027-041>044-520-521-300900-
EAST SLOPES

CITY           SKY/WX    TMP DP  RH WIND       PRES   REMARKS
OMAK           CLEAR     73  41  31 NW7       29.95R
WENATCHEE      CLEAR     82  49  31 NW16      29.97R
ELLENSBURG     CLEAR     74  52  46 NW17G25   30.02S
YAKIMA         PTCLDY    79  48  33 NW7       29.99R
$$

WAZ028-034-035-300900-
COLUMBIA BASIN

CITY           SKY/WX    TMP DP  RH WIND       PRES   REMARKS
EPHRATA        MOCLDY    85  36  17 NW15      29.92S
MOSES LAKE     MOCLDY    77  52  41 CALM      29.94R
PASCO          CLOUDY    85  59  41 W9        29.89R
HERMISTON, OR  CLOUDY    81  51  35 S7        29.93S
$$

WAZ036>038-300900-
NORTHEAST WASHINGTON

CITY           SKY/WX    TMP DP  RH WIND       PRES   REMARKS
SPOKANE GEIGER PTCLDY    79  31  17 SW7       30.02S
SPOKANE FELTS  PTCLDY    71  47  42 NE6       30.00S
FAIRCHILD AFB  NOT AVBL
COEURDALENE,ID CLEAR     63  52  67 E6        30.02R
DEER PARK      PTCLDY    66  46  48 NE7       30.01S
$$

WAZ029>033-300900-
SOUTHEAST WASHINGTON

CITY           SKY/WX    TMP DP  RH WIND       PRES   REMARKS
PULLMAN        MOCLDY    59  46  62 CALM      30.06R
LEWISTON, ID   PTCLDY    80  34  19 S8        29.97R
WALLA WALLA    CLOUDY    81  44  27 SE8       29.98S
PENDLETON, OR  CLOUDY    75  42  30 NW8       30.00R
$$


USA.gov is the U.S. government's official web portal to all federal, state and local government web resources and services.